Regional Weather Roundup
Issued by NWS

Home | Current Version | Previous Version | Graphics & Text | Print | Product List | Glossary On
Versions: 1 2 3 4 5 6 7 8 9 10 11 12 13 14 15 16 17 18 19 20 21 22 23 24 25 26 27 28 29 30 31 32 33 34 35 36 37 38 39 40 41 42 43 44 45 46 47 48 49 50
000
ASUS43 KIND 271059
RWRIN

WEATHER ROUNDUP FOR INDIANA
NATIONAL WEATHER SERVICE INDIANAPOLIS IN
700 AM EDT FRI MAR 27 2015

NOTE: "FAIR" INDICATES FEW OR NO CLOUDS BELOW 12,000 FEET WITH NO
SIGNIFICANT WEATHER AND/OR OBSTRUCTIONS TO VISIBILITY.

* - STATION DOES NOT REPORT WEATHER SUCH AS PRECIPITATION OR FOG.

+ - STATION NOT QUALITY CONTROLLED BY THE NATIONAL WEATHER SERVICE.
    USE DATA WITH CAUTION...ESPECIALLY DEWPOINT AND RELATIVE
    HUMIDITY OBSERVATIONS.

INZ001>003-010>013-019-020-271200-
NORTHWEST INDIANA

CITY           SKY/WX    TMP DP  RH WIND       PRES   REMARKS
GARY /AIRPORT/ LGT SNOW  28  21  74 N18G30    30.09R WCI  16

$$

LMZ046-743>745-271200-
SOUTHERN LAKE MICHIGAN

STATION/POSITION TIME  TEMP WIND        PRES
                       AIR  DIR/SP/G
                 (UTC) (F)  (DEG/KT/KT) (MB)
BURNS HARBOR     1000   27   30/ 18/ 22 1018.6R
MICHIGAN CITY    1000   26   10/ 18/ 21   N/A

$$

INZ004-005-014>016-021>024-271200-
NORTH CENTRAL INDIANA

CITY           SKY/WX    TMP DP  RH WIND       PRES   REMARKS
ELKHART        CLOUDY    25  10  54 N9        30.05  WCI  15
GOSHEN         CLOUDY    25  14  63 N13       30.04R WCI  14
SOUTH BEND     CLOUDY    25  14  63 N10       30.06R WCI  15

$$

INZ006>009-017-018-025>027-271200-
NORTHEAST INDIANA

CITY           SKY/WX    TMP DP  RH WIND       PRES   REMARKS
ANGOLA *+      CLEAR     23  14  68 N9        29.99S WCI  13
FORT WAYNE     FLURRIES  28  23  81 N8        30.01R WCI  20

$$

INZ028-029-035-036-043>045-051>053-271200-
WEST CENTRAL INDIANA

CITY           SKY/WX    TMP DP  RH WIND       PRES   REMARKS
CRAWFORDSVL +  CLOUDY    28  19  68 MISG      30.03S
GREENCASTLE +  CLOUDY    32  23  69 N6        30.04R WCI  26
LAFAYETTE      MOCLDY    28  22  78 N9        30.06R WCI  19
TERRE HAUTE    CLOUDY    32  26  78 N7        30.05R WCI  26

$$

INZ030>032-037>040-046>048-054>057-064-065-271200-
CENTRAL INDIANA

CITY           SKY/WX    TMP DP  RH WIND       PRES   REMARKS
GREENWOOD *+   CLOUDY    32  23  69 N7        30.02R WCI  26
INDIANAPOLIS   CLOUDY    31  24  75 N8        30.01S WCI  23
-EAGLE CREEK   CLOUDY    31  23  72 N12       30.02R WCI  22
KOKOMO *+        N/A     28  21  74 N10       30.02S WCI  19
MT COMFORT *+  CLOUDY    30  19  64 N7        30.01S WCI  23
SHELBYVILLE    PTCLDY    31  25  78 N8        30.01R WCI  23

$$

INZ033-034-041-042-049-050-058-059-271200-
EAST CENTRAL INDIANA

CITY           SKY/WX    TMP DP  RH WIND       PRES   REMARKS
MUNCIE         CLOUDY    30  25  81 N15       30.00R WCI  19

$$

INZ060-061-067>069-081>083-085>088-271200-
SOUTHWEST INDIANA

CITY           SKY/WX    TMP DP  RH WIND       PRES   REMARKS
EVANSVILLE     PTCLDY    36  30  79 N5        30.03R
HUNTINGBURG *+ PTCLDY    34  27  75 N5        30.03R WCI  30

$$

INZ062-063-066-070>080-084-089>092-271200-
SOUTH CENTRAL AND SOUTHEAST INDIANA

CITY           SKY/WX    TMP DP  RH WIND       PRES   REMARKS
BLOOMINGTON    MOCLDY    31  27  85 N8        30.02R WCI  23
SEYMOUR +      FAIR      32  27  80 N6        30.02R WCI  26

$$



USA.gov is the U.S. government's official web portal to all federal, state and local government web resources and services.